, NV

(GMT )
Eureka Airport

Weather History for K05U - April, 2014

Change the Weather History Date:

Tuesday, April 15, 2014

  Actual Average Record
Temperature  
Mean Temperature 49 °F -  
Max Temperature 68 °F - - ()
Min Temperature 30 °F - - ()
Degree Days  
Heating Degree Days 16    
Moisture  
Dew Point 12 °F    
Average Humidity 26    
Maximum Humidity 52    
Minimum Humidity 10    
Precipitation  
Precipitation 0.00 in - - ()
Sea Level Pressure  
Sea Level Pressure 30.05 in    
Wind  
Wind Speed 8 mph (WSW)    
Max Wind Speed 23 mph    
Max Gust Speed 32 mph    
Visibility 10 miles    
Events      
Averages and records for this station are not official NWS values.
T = Trace of Precipitation, MM = Missing Value Source: NWS Daily Summary

Daily Weather History Graph

Daily Weather History Graph

Search for Another Location

Airport or City:

Astronomy

Apr. 15, 2014 Rise Set
Actual Time 6:06 AM PDT 7:22 PM PDT
Civil Twilight 5:38 AM PDT 7:50 PM PDT
Nautical Twilight 5:05 AM PDT 8:23 PM PDT
Astronomical Twilight 4:30 AM PDT 8:58 PM PDT
Moon 8:07 PM PDT (4/15) 6:17 AM PDT (4/15)
Length of Visible Light 14h 11m
Length of Day
13h 15m
Full, 100% of the Moon is Illuminated
Apr 15
Full
Apr 22
Last Quarter
Apr 28
New
May 6
First Quarter
May 14
Full

Hourly Weather History & Observations

Time (PDT) Temp. Windchill Dew Point Humidity Pressure Visibility Wind Dir Wind Speed Gust Speed Precip Events Conditions
12:00 AM 32.0 °F - 6.8 °F 35% 30.18 in 10.0 mi Calm Calm - N/A   Clear
12:20 AM 32.0 °F 24.8 °F 6.8 °F 35% 30.17 in 10.0 mi South 8.1 mph - N/A   Clear
12:40 AM 33.8 °F 27.0 °F 6.8 °F 32% 30.17 in 10.0 mi South 8.1 mph - N/A   Clear
1:00 AM 32.0 °F 24.8 °F 6.8 °F 35% 30.16 in 10.0 mi South 8.1 mph - N/A   Clear
1:20 AM 32.0 °F 24.8 °F 6.8 °F 35% 30.15 in 10.0 mi SSW 8.1 mph - N/A   Clear
1:40 AM 33.8 °F 28.6 °F 6.8 °F 32% 30.15 in 10.0 mi South 5.8 mph - N/A   Clear
2:00 AM 33.8 °F 27.7 °F 6.8 °F 32% 30.14 in 10.0 mi South 6.9 mph - N/A   Clear
2:20 AM 32.0 °F 24.8 °F 6.8 °F 35% 30.14 in 10.0 mi WSW 8.1 mph - N/A   Clear
2:40 AM 32.0 °F 25.6 °F 6.8 °F 35% 30.13 in 10.0 mi SW 6.9 mph - N/A   Clear
3:00 AM 32.0 °F 28.7 °F 5.0 °F 32% 30.13 in 10.0 mi SSW 3.5 mph - N/A   Clear
3:20 AM 32.0 °F - 6.8 °F 35% 30.13 in 10.0 mi Calm Calm - N/A   Clear
3:40 AM 35.6 °F 29.9 °F 5.0 °F 28% 30.13 in 10.0 mi South 6.9 mph - N/A   Clear
4:00 AM 32.0 °F 25.6 °F 5.0 °F 32% 30.13 in 10.0 mi SSW 6.9 mph - N/A   Clear
4:20 AM 32.0 °F 25.6 °F 5.0 °F 32% 30.12 in 10.0 mi South 6.9 mph - N/A   Clear
4:40 AM 32.0 °F 27.5 °F 5.0 °F 32% 30.12 in 10.0 mi SSE 4.6 mph - N/A   Clear
5:00 AM 32.0 °F 24.8 °F 6.8 °F 35% 30.11 in 10.0 mi South 8.1 mph - N/A   Clear
5:20 AM 32.0 °F - 8.6 °F 38% 30.11 in 10.0 mi Calm Calm - N/A   Clear
5:40 AM 30.2 °F 23.4 °F 8.6 °F 40% 30.11 in 10.0 mi SSW 6.9 mph - N/A   Clear
6:00 AM 32.0 °F 25.6 °F 6.8 °F 35% 30.10 in 10.0 mi SSW 6.9 mph - N/A   Clear
6:20 AM 33.8 °F 29.6 °F 5.0 °F 30% 30.10 in 10.0 mi South 4.6 mph - N/A   Clear
6:40 AM 35.6 °F 31.7 °F 5.0 °F 28% 30.11 in 10.0 mi South 4.6 mph - N/A   Clear
7:00 AM 35.6 °F 29.9 °F 5.0 °F 28% 30.10 in 10.0 mi South 6.9 mph - N/A   Clear
7:20 AM 37.4 °F 32.8 °F 6.8 °F 28% 30.10 in 10.0 mi South 5.8 mph - N/A   Clear
7:40 AM 41.0 °F 39.0 °F 6.8 °F 24% 30.10 in 10.0 mi South 3.5 mph - N/A   Clear
8:00 AM 46.4 °F 41.5 °F 6.8 °F 20% 30.10 in 10.0 mi SW 10.4 mph - N/A   Clear
8:20 AM 46.4 °F 41.1 °F 6.8 °F 20% 30.10 in 10.0 mi SW 11.5 mph - N/A   Clear
8:40 AM 48.2 °F - 6.8 °F 19% 30.09 in 10.0 mi SSW 12.7 mph - N/A   Clear
9:00 AM 53.6 °F - 6.8 °F 15% 30.08 in 10.0 mi South 3.5 mph - N/A   Clear
9:20 AM 57.2 °F - 5.0 °F 12% 30.08 in 10.0 mi West 12.7 mph - N/A   Clear
9:40 AM 59.0 °F - 8.6 °F 14% 30.07 in 10.0 mi West 15.0 mph 20.7 mph N/A   Clear
10:00 AM 59.0 °F - 10.4 °F 15% 30.07 in 10.0 mi West 15.0 mph - N/A   Clear
10:40 AM 62.6 °F - 14.0 °F 15% 30.07 in 10.0 mi West 10.4 mph - N/A   Clear
11:00 AM 62.6 °F - 15.8 °F 16% 30.06 in 10.0 mi WSW 16.1 mph 19.6 mph N/A   Clear
11:20 AM 64.4 °F - 15.8 °F 15% 30.05 in 10.0 mi West 11.5 mph 18.4 mph N/A   Clear
11:40 AM 66.2 °F - 17.6 °F 15% 30.04 in 10.0 mi WNW 5.8 mph 23.0 mph N/A   Clear
12:00 PM 66.2 °F - 15.8 °F 14% 30.03 in 10.0 mi West 19.6 mph 26.5 mph N/A   Clear
12:20 PM 66.2 °F - 15.8 °F 14% 30.02 in 10.0 mi West 10.4 mph - N/A   Clear
12:40 PM 66.2 °F - 10.4 °F 11% 30.02 in 10.0 mi West 17.3 mph 26.5 mph N/A   Clear
1:00 PM 66.2 °F - 12.2 °F 12% 30.01 in 10.0 mi West 17.3 mph 26.5 mph N/A   Clear
1:20 PM 68.0 °F - 14.0 °F 12% 30.01 in 10.0 mi WNW 16.1 mph 24.2 mph N/A   Partly Cloudy
1:40 PM 66.2 °F - 6.8 °F 10% 30.00 in 10.0 mi WNW 19.6 mph 28.8 mph N/A   Clear
2:00 PM 66.2 °F - 10.4 °F 11% 29.99 in 10.0 mi West 19.6 mph 23.0 mph N/A   Clear
2:20 PM 68.0 °F - 14.0 °F 12% 29.99 in 10.0 mi WNW 12.7 mph 21.9 mph N/A   Clear
3:00 PM 68.0 °F - 10.4 °F 11% 29.98 in 10.0 mi NW 8.1 mph 21.9 mph N/A   Clear
3:20 PM 68.0 °F - 14.0 °F 12% 29.97 in 10.0 mi WNW 10.4 mph 24.2 mph N/A   Clear
3:40 PM 68.0 °F - 10.4 °F 11% 29.96 in 10.0 mi West 15.0 mph 32.2 mph N/A   Clear
4:00 PM 68.0 °F - 14.0 °F 12% 29.96 in 10.0 mi NW 16.1 mph 20.7 mph N/A   Clear
4:20 PM 64.4 °F - 14.0 °F 14% 29.96 in 10.0 mi NW 15.0 mph 21.9 mph N/A   Clear
4:40 PM 62.6 °F - 15.8 °F 16% 29.97 in 10.0 mi NW 21.9 mph 31.1 mph N/A   Clear
5:00 PM 62.6 °F - 17.6 °F 18% 29.96 in 10.0 mi WNW 13.8 mph 24.2 mph N/A   Clear
5:20 PM 64.4 °F - 17.6 °F 16% 29.96 in 10.0 mi WNW 16.1 mph 27.6 mph N/A   Clear
5:40 PM 62.6 °F - 17.6 °F 18% 29.96 in 10.0 mi NW 23.0 mph 29.9 mph N/A   Clear
6:00 PM 62.6 °F - 19.4 °F 19% 29.96 in 10.0 mi WNW 13.8 mph 26.5 mph N/A   Clear
6:20 PM 62.6 °F - 15.8 °F 16% 29.96 in 10.0 mi NW 19.6 mph 28.8 mph N/A   Partly Cloudy
6:40 PM 60.8 °F - 14.0 °F 16% 29.96 in 10.0 mi WNW 13.8 mph 20.7 mph N/A   Clear
7:00 PM 59.0 °F - 14.0 °F 17% 29.96 in 10.0 mi WNW 13.8 mph - N/A   Clear
7:20 PM 57.2 °F - 14.0 °F 18% 29.96 in 10.0 mi NW 10.4 mph - N/A   Clear
7:40 PM 55.4 °F - 17.6 °F 23% 29.97 in 10.0 mi NNW 15.0 mph 23.0 mph N/A   Clear
8:00 PM 53.6 °F - 21.2 °F 28% 29.98 in 10.0 mi NNW 10.4 mph - N/A   Clear
8:20 PM 50.0 °F - 21.2 °F 32% 29.99 in 10.0 mi NNW 6.9 mph - N/A   Clear
8:40 PM 48.2 °F - 23.0 °F 37% 30.00 in 10.0 mi NNE 8.1 mph - N/A   Clear
9:00 PM 46.4 °F 45.2 °F 21.2 °F 37% 30.00 in 10.0 mi NE 3.5 mph - N/A   Clear
9:20 PM 44.6 °F 40.7 °F 21.2 °F 39% 30.00 in 10.0 mi NE 6.9 mph - N/A   Clear
9:40 PM 44.6 °F 40.2 °F 21.2 °F 39% 30.01 in 10.0 mi NNE 8.1 mph - N/A   Clear
10:00 PM 41.0 °F 35.8 °F 23.0 °F 49% 30.01 in 10.0 mi NNW 8.1 mph - N/A   Clear
10:20 PM 41.0 °F 37.1 °F 21.2 °F 45% 30.01 in 10.0 mi NNW 5.8 mph - N/A   Clear
10:40 PM 41.0 °F - 21.2 °F 45% 30.02 in 10.0 mi Calm Calm - N/A   Clear
11:00 PM 39.2 °F 37.0 °F 21.2 °F 49% 30.02 in 10.0 mi ESE 3.5 mph - N/A   Clear
11:20 PM 37.4 °F 34.9 °F 21.2 °F 52% 30.02 in 10.0 mi ESE 3.5 mph - N/A   Clear
11:40 PM 37.4 °F - 21.2 °F 52% 30.02 in 10.0 mi Calm Calm - N/A   Clear